Time,TemperatureF,DewpointF,PressureIn,WindDirection,WindDirectionDegrees,WindSpeedMPH,WindSpeedGustMPH,Humidity,HourlyPrecipIn,Conditions,Clouds,dailyrainin,SoftwareType,DateUTC
2013-02-12 00:01:00,41.0,37.0,30.09,SW,236,0.0,-999.0,87,-99.99,,,-99.99,,2013-02-12 05:01:00,
2013-02-12 00:11:00,40.0,36.0,30.08,WNW,286,0.0,-999.0,87,-99.99,,,-99.99,,2013-02-12 05:11:00,
2013-02-12 00:21:00,40.0,36.0,30.08,WNW,286,0.0,-999.0,87,-99.99,,,-99.99,,2013-02-12 05:21:00,
2013-02-12 00:32:00,40.0,36.0,30.09,WNW,286,0.0,-999.0,87,-99.99,,,-99.99,,2013-02-12 05:32:00,
2013-02-12 00:42:00,40.0,36.0,30.09,WNW,286,0.0,-999.0,87,-99.99,,,-99.99,,2013-02-12 05:42:00,
2013-02-12 00:52:00,39.0,36.0,30.11,WNW,286,0.0,-999.0,88,-99.99,,,-99.99,,2013-02-12 05:52:00,
2013-02-12 01:02:00,39.0,36.0,30.10,WNW,286,0.0,-999.0,88,-99.99,,,-99.99,,2013-02-12 06:02:00,
2013-02-12 01:12:00,39.0,36.0,30.10,WNW,286,0.0,-999.0,88,-99.99,,,-99.99,,2013-02-12 06:12:00,
2013-02-12 01:21:00,39.0,36.0,30.10,WNW,286,0.0,-999.0,88,-99.99,,,-99.99,,2013-02-12 06:21:00,
2013-02-12 01:32:00,39.0,36.0,30.11,WNW,286,0.0,-999.0,88,-99.99,,,-99.99,,2013-02-12 06:32:00,
2013-02-12 01:42:00,38.0,35.0,30.12,WNW,286,0.0,-999.0,88,-99.99,,,-99.99,,2013-02-12 06:42:00,
2013-02-12 01:52:00,38.0,35.0,30.12,WNW,286,0.0,-999.0,88,-99.99,,,-99.99,,2013-02-12 06:52:00,
2013-02-12 02:01:00,38.0,35.0,30.11,WNW,286,0.0,-999.0,88,-99.99,,,-99.99,,2013-02-12 07:01:00,
2013-02-12 02:11:00,38.0,35.0,30.11,WNW,286,0.0,-999.0,88,-99.99,,,-99.99,,2013-02-12 07:11:00,
2013-02-12 02:21:00,38.0,35.0,30.09,WNW,286,0.0,-999.0,88,-99.99,,,-99.99,,2013-02-12 07:21:00,
2013-02-12 02:32:00,38.0,35.0,30.11,WNW,296,0.0,-999.0,89,-99.99,,,-99.99,,2013-02-12 07:32:00,
2013-02-12 02:42:00,38.0,35.0,30.11,WNW,296,0.0,-999.0,89,-99.99,,,-99.99,,2013-02-12 07:42:00,
2013-02-12 02:52:00,38.0,35.0,30.11,WNW,296,0.0,-999.0,89,-99.99,,,-99.99,,2013-02-12 07:52:00,
2013-02-12 03:01:00,37.0,34.0,30.11,WNW,296,0.0,-999.0,89,-99.99,,,-99.99,,2013-02-12 08:01:00,
2013-02-12 03:11:00,37.0,34.0,30.11,WNW,296,0.0,-999.0,89,-99.99,,,-99.99,,2013-02-12 08:11:00,
2013-02-12 03:21:00,37.0,34.0,30.11,WNW,296,0.0,-999.0,89,-99.99,,,-99.99,,2013-02-12 08:21:00,
2013-02-12 03:32:00,37.0,34.0,30.12,WNW,296,0.0,-999.0,89,-99.99,,,-99.99,,2013-02-12 08:32:00,
2013-02-12 03:42:00,37.0,34.0,30.12,WNW,296,0.0,-999.0,89,-99.99,,,-99.99,,2013-02-12 08:42:00,
2013-02-12 03:52:00,37.0,34.0,30.13,WNW,296,0.0,-999.0,89,-99.99,,,-99.99,,2013-02-12 08:52:00,
2013-02-12 04:02:00,37.0,34.0,30.11,WNW,296,0.0,-999.0,90,-99.99,,,-99.99,,2013-02-12 09:02:00,
2013-02-12 04:11:00,37.0,34.0,30.11,WNW,296,0.0,-999.0,90,-99.99,,,-99.99,,2013-02-12 09:11:00,
2013-02-12 04:21:00,37.0,34.0,30.09,WNW,296,0.0,-999.0,90,-99.99,,,-99.99,,2013-02-12 09:21:00,
2013-02-12 04:32:00,37.0,34.0,30.11,WNW,296,0.0,-999.0,90,-99.99,,,-99.99,,2013-02-12 09:32:00,
2013-02-12 04:42:00,37.0,34.0,30.11,NNW,340,0.0,-999.0,90,-99.99,,,-99.99,,2013-02-12 09:42:00,
2013-02-12 04:51:00,37.0,34.0,30.11,NNW,340,0.0,-999.0,90,-99.99,,,-99.99,,2013-02-12 09:51:00,
2013-02-12 05:01:00,37.0,34.0,30.10,NNW,340,0.0,-999.0,90,-99.99,,,-99.99,,2013-02-12 10:01:00,
2013-02-12 05:11:00,38.0,35.0,30.11,NNW,341,0.0,-999.0,90,-99.99,,,-99.99,,2013-02-12 10:11:00,
2013-02-12 05:21:00,38.0,35.0,30.11,NNW,341,0.0,-999.0,90,-99.99,,,-99.99,,2013-02-12 10:21:00,
2013-02-12 05:32:00,38.0,35.0,30.11,NNW,341,0.0,-999.0,90,-99.99,,,-99.99,,2013-02-12 10:32:00,
2013-02-12 05:43:00,38.0,35.0,30.11,NNW,341,0.0,-999.0,90,-99.99,,,-99.99,,2013-02-12 10:43:00,
2013-02-12 05:51:00,38.0,35.0,30.12,NNW,341,0.0,-999.0,89,-99.99,,,-99.99,,2013-02-12 10:51:00,
2013-02-12 06:01:00,37.0,34.0,30.13,NNW,341,0.0,-999.0,89,-99.99,,,-99.99,,2013-02-12 11:01:00,
2013-02-12 06:11:00,37.0,34.0,30.13,NNW,341,0.0,-999.0,89,-99.99,,,-99.99,,2013-02-12 11:11:00,
2013-02-12 06:22:00,37.0,34.0,30.11,NNW,342,0.0,-999.0,89,-99.99,,,-99.99,,2013-02-12 11:22:00,
2013-02-12 06:32:00,37.0,34.0,30.12,NNW,346,0.0,-999.0,88,-99.99,,,-99.99,,2013-02-12 11:32:00,
2013-02-12 06:42:00,37.0,34.0,30.12,NNW,346,0.0,-999.0,88,-99.99,,,-99.99,,2013-02-12 11:42:00,
2013-02-12 06:52:00,37.0,34.0,30.13,NNW,346,0.0,-999.0,88,-99.99,,,-99.99,,2013-02-12 11:52:00,
2013-02-12 07:01:00,37.0,34.0,30.12,NNW,346,0.0,-999.0,88,-99.99,,,-99.99,,2013-02-12 12:01:00,
2013-02-12 07:11:00,37.0,34.0,30.13,NNW,346,0.0,-999.0,88,-99.99,,,-99.99,,2013-02-12 12:11:00,
2013-02-12 07:21:00,37.0,34.0,30.13,NNW,346,0.0,-999.0,88,-99.99,,,-99.99,,2013-02-12 12:21:00,
2013-02-12 07:32:00,36.0,33.0,30.15,NNW,346,0.0,-999.0,88,-99.99,,,-99.99,,2013-02-12 12:32:00,
2013-02-12 07:42:00,36.0,33.0,30.15,NNW,346,0.0,-999.0,88,-99.99,,,-99.99,,2013-02-12 12:42:00,
2013-02-12 07:53:00,36.0,33.0,30.16,NNW,346,0.0,-999.0,88,-99.99,,,-99.99,,2013-02-12 12:53:00,
2013-02-12 08:01:00,36.0,33.0,30.14,NNW,346,0.0,-999.0,88,-99.99,,,-99.99,,2013-02-12 13:01:00,
2013-02-12 08:11:00,36.0,33.0,30.16,NNW,346,0.0,-999.0,87,-99.99,,,-99.99,,2013-02-12 13:11:00,
2013-02-12 08:22:00,36.0,33.0,30.16,NNW,346,0.0,-999.0,87,-99.99,,,-99.99,,2013-02-12 13:22:00,
2013-02-12 08:32:00,35.0,32.0,30.16,NNW,346,0.0,-999.0,88,-99.99,,,-99.99,,2013-02-12 13:32:00,
2013-02-12 08:42:00,35.0,32.0,30.16,NNW,346,0.0,-999.0,88,-99.99,,,-99.99,,2013-02-12 13:42:00,
2013-02-12 08:52:00,35.0,32.0,30.15,NNW,346,0.0,-999.0,89,-99.99,,,-99.99,,2013-02-12 13:52:00,
2013-02-12 09:01:00,37.0,34.0,30.13,NNE,14,0.0,-999.0,90,-99.99,,,-99.99,,2013-02-12 14:01:00,
2013-02-12 09:12:00,37.0,34.0,30.13,NNE,14,0.0,-999.0,90,-99.99,,,-99.99,,2013-02-12 14:12:00,
2013-02-12 09:22:00,38.0,35.0,30.13,NNE,20,1.0,-999.0,90,-99.99,,,-99.99,,2013-02-12 14:22:00,
2013-02-12 09:32:00,40.0,37.0,30.13,ENE,65,1.0,-999.0,88,-99.99,,,-99.99,,2013-02-12 14:32:00,
2013-02-12 09:42:00,40.0,37.0,30.13,ENE,65,1.0,-999.0,88,-99.99,,,-99.99,,2013-02-12 14:42:00,
2013-02-12 09:52:00,41.0,37.0,30.12,NE,34,2.0,-999.0,84,-99.99,,,-99.99,,2013-02-12 14:52:00,
2013-02-12 10:02:00,43.0,36.0,30.11,NE,38,3.0,-999.0,77,-99.99,,,-99.99,,2013-02-12 15:02:00,
2013-02-12 10:11:00,45.0,36.0,30.11,NE,37,2.0,-999.0,71,-99.99,,,-99.99,,2013-02-12 15:11:00,
2013-02-12 10:21:00,45.0,36.0,30.11,NE,37,2.0,-999.0,71,-99.99,,,-99.99,,2013-02-12 15:21:00,
2013-02-12 10:32:00,49.0,38.0,30.11,NE,55,2.0,-999.0,65,-99.99,,,-99.99,,2013-02-12 15:32:00,
2013-02-12 10:42:00,49.0,38.0,30.11,NE,55,2.0,-999.0,65,-99.99,,,-99.99,,2013-02-12 15:42:00,
2013-02-12 10:52:00,51.0,38.0,30.08,ENE,77,3.0,-999.0,62,-99.99,,,-99.99,,2013-02-12 15:52:00,
2013-02-12 11:01:00,53.0,37.0,30.07,NE,56,3.0,-999.0,55,-99.99,,,-99.99,,2013-02-12 16:01:00,
2013-02-12 11:11:00,53.0,37.0,30.07,NE,56,3.0,-999.0,55,-99.99,,,-99.99,,2013-02-12 16:11:00,
2013-02-12 11:22:00,55.0,37.0,30.08,NE,51,3.0,-999.0,50,-99.99,,,-99.99,,2013-02-12 16:22:00,
2013-02-12 11:32:00,57.0,38.0,30.07,NNE,25,3.0,-999.0,49,-99.99,,,-99.99,,2013-02-12 16:32:00,
2013-02-12 11:52:00,57.0,36.0,30.07,NNE,24,2.0,-999.0,46,-99.99,,,-99.99,,2013-02-12 16:52:00,
2013-02-12 12:01:00,57.0,38.0,30.08,NNE,17,1.0,-999.0,48,-99.99,,,-99.99,,2013-02-12 17:01:00,
2013-02-12 12:21:00,56.0,36.0,30.08,NNE,17,0.0,-999.0,46,-99.99,,,-99.99,,2013-02-12 17:21:00,
2013-02-12 12:32:00,56.0,36.0,30.08,ENE,65,1.0,-999.0,47,-99.99,,,-99.99,,2013-02-12 17:32:00,
2013-02-12 12:52:00,55.0,33.0,30.08,NNW,341,1.0,-999.0,44,-99.99,,,-99.99,,2013-02-12 17:52:00,
2013-02-12 13:01:00,55.0,35.0,30.05,North,5,1.0,-999.0,46,-99.99,,,-99.99,,2013-02-12 18:01:00,
2013-02-12 13:11:00,54.0,35.0,30.07,North,5,1.0,-999.0,48,-99.99,,,-99.99,,2013-02-12 18:11:00,
2013-02-12 13:23:00,54.0,35.0,30.07,North,5,1.0,-999.0,48,-99.99,,,-99.99,,2013-02-12 18:23:00,
2013-02-12 13:32:00,54.0,36.0,30.06,North,360,0.0,-999.0,50,-99.99,,,-99.99,,2013-02-12 18:32:00,
2013-02-12 13:41:00,54.0,36.0,30.06,North,360,0.0,-999.0,50,-99.99,,,-99.99,,2013-02-12 18:41:00,
2013-02-12 13:51:00,54.0,36.0,30.04,North,360,0.0,-999.0,51,-99.99,,,-99.99,,2013-02-12 18:51:00,
2013-02-12 14:02:00,54.0,36.0,30.02,North,9,1.0,-999.0,50,-99.99,,,-99.99,,2013-02-12 19:02:00,
2013-02-12 14:11:00,54.0,35.0,30.01,NNE,24,1.0,-999.0,49,-99.99,,,-99.99,,2013-02-12 19:11:00,
2013-02-12 14:21:00,54.0,35.0,30.01,NNE,24,1.0,-999.0,49,-99.99,,,-99.99,,2013-02-12 19:21:00,
2013-02-12 14:31:00,54.0,35.0,30.04,ENE,64,0.0,-999.0,49,-99.99,,,-99.99,,2013-02-12 19:31:00,
2013-02-12 14:42:00,54.0,39.0,30.03,ENE,64,0.0,-999.0,56,-99.99,,,-99.99,,2013-02-12 19:42:00,
2013-02-12 14:51:00,54.0,39.0,30.03,ENE,64,0.0,-999.0,56,-99.99,,,-99.99,,2013-02-12 19:51:00,
2013-02-12 15:01:00,54.0,39.0,30.02,ENE,64,0.0,-999.0,56,-99.99,,,-99.99,,2013-02-12 20:01:00,
2013-02-12 15:21:00,53.0,38.0,30.04,ENE,64,0.0,-999.0,56,-99.99,,,-99.99,,2013-02-12 20:21:00,
2013-02-12 15:32:00,52.0,38.0,30.01,ENE,64,0.0,-999.0,59,-99.99,,,-99.99,,2013-02-12 20:32:00,
2013-02-12 15:41:00,52.0,38.0,30.01,ENE,64,0.0,-999.0,59,-99.99,,,-99.99,,2013-02-12 20:41:00,
2013-02-12 15:52:00,52.0,37.0,30.01,ENE,64,0.0,-999.0,57,-99.99,,,-99.99,,2013-02-12 20:52:00,
2013-02-12 16:01:00,52.0,39.0,30.01,ENE,64,0.0,-999.0,60,-99.99,,,-99.99,,2013-02-12 21:01:00,
2013-02-12 16:11:00,52.0,39.0,30.01,ENE,64,0.0,-999.0,60,-99.99,,,-99.99,,2013-02-12 21:11:00,
2013-02-12 16:21:00,52.0,38.0,30.01,ENE,64,0.0,-999.0,58,-99.99,,,-99.99,,2013-02-12 21:21:00,
2013-02-12 16:31:00,51.0,38.0,29.99,ENE,64,0.0,-999.0,62,-99.99,,,-99.99,,2013-02-12 21:31:00,
2013-02-12 16:42:00,51.0,38.0,29.98,ENE,58,0.0,-999.0,61,-99.99,,,-99.99,,2013-02-12 21:42:00,
2013-02-12 16:52:00,51.0,38.0,29.98,ENE,58,0.0,-999.0,61,-99.99,,,-99.99,,2013-02-12 21:52:00,
2013-02-12 17:01:00,51.0,38.0,29.96,ENE,58,0.0,-999.0,60,-99.99,,,-99.99,,2013-02-12 22:01:00,
2013-02-12 17:12:00,51.0,38.0,29.96,ENE,58,0.0,-999.0,60,-99.99,,,-99.99,,2013-02-12 22:12:00,
2013-02-12 17:21:00,50.0,38.0,29.95,ENE,57,0.0,-999.0,62,-99.99,,,-99.99,,2013-02-12 22:21:00,
2013-02-12 17:32:00,50.0,38.0,29.95,ENE,57,0.0,-999.0,64,-99.99,,,-99.99,,2013-02-12 22:32:00,
2013-02-12 17:52:00,50.0,38.0,29.93,ENE,57,0.0,-999.0,63,-99.99,,,-99.99,,2013-02-12 22:52:00,
2013-02-12 18:01:00,49.0,37.0,29.93,NE,56,0.0,-999.0,64,-99.99,,,-99.99,,2013-02-12 23:01:00,
2013-02-12 18:11:00,48.0,36.0,29.96,ENE,57,0.0,-999.0,63,-99.99,,,-99.99,,2013-02-12 23:11:00,
2013-02-12 18:21:00,48.0,36.0,29.96,ENE,57,0.0,-999.0,63,-99.99,,,-99.99,,2013-02-12 23:21:00,
2013-02-12 18:32:00,48.0,36.0,29.97,ENE,57,0.0,-999.0,63,-99.99,,,-99.99,,2013-02-12 23:32:00,
2013-02-12 18:42:00,48.0,36.0,29.97,ENE,57,0.0,-999.0,63,-99.99,,,-99.99,,2013-02-12 23:42:00,
2013-02-12 18:52:00,47.0,35.0,29.98,ENE,57,0.0,-999.0,64,-99.99,,,-99.99,,2013-02-12 23:52:00,
2013-02-12 19:02:00,47.0,35.0,29.96,ENE,57,0.0,-999.0,64,-99.99,,,-99.99,,2013-02-13 00:02:00,
2013-02-12 19:11:00,47.0,35.0,29.96,ENE,57,0.0,-999.0,64,-99.99,,,-99.99,,2013-02-13 00:11:00,
2013-02-12 19:21:00,47.0,36.0,29.95,ENE,57,0.0,-999.0,65,-99.99,,,-99.99,,2013-02-13 00:21:00,
2013-02-12 19:32:00,47.0,37.0,29.96,ENE,57,0.0,-999.0,68,-99.99,,,-99.99,,2013-02-13 00:32:00,
2013-02-12 19:42:00,47.0,37.0,29.96,ENE,57,0.0,-999.0,68,-99.99,,,-99.99,,2013-02-13 00:42:00,
2013-02-12 19:52:00,46.0,36.0,29.94,ENE,57,0.0,-999.0,69,-99.99,,,-99.99,,2013-02-13 00:52:00,
2013-02-12 20:01:00,46.0,38.0,29.93,ENE,57,0.0,-999.0,73,-99.99,,,-99.99,,2013-02-13 01:01:00,
2013-02-12 20:11:00,46.0,38.0,29.93,ENE,57,0.0,-999.0,73,-99.99,,,-99.99,,2013-02-13 01:11:00,
2013-02-12 20:21:00,46.0,39.0,29.94,ENE,57,0.0,-999.0,76,-99.99,,,-99.99,,2013-02-13 01:21:00,
2013-02-12 20:31:00,45.0,39.0,29.95,ENE,57,0.0,-999.0,80,-99.99,,,-99.99,,2013-02-13 01:31:00,
2013-02-12 20:42:00,45.0,40.0,29.92,ENE,57,0.0,-999.0,82,-99.99,,,-99.99,,2013-02-13 01:42:00,
2013-02-12 20:52:00,45.0,40.0,29.92,ENE,57,0.0,-999.0,82,-99.99,,,-99.99,,2013-02-13 01:52:00,
2013-02-12 21:01:00,44.0,39.0,29.92,ENE,57,0.0,-999.0,83,-99.99,,,-99.99,,2013-02-13 02:01:00,
2013-02-12 21:11:00,44.0,39.0,29.92,ENE,57,0.0,-999.0,83,-99.99,,,-99.99,,2013-02-13 02:11:00,
2013-02-12 21:22:00,44.0,40.0,29.91,ENE,57,0.0,-999.0,85,-99.99,,,-99.99,,2013-02-13 02:22:00,
2013-02-12 21:32:00,43.0,39.0,29.92,ENE,57,0.0,-999.0,86,-99.99,,,-99.99,,2013-02-13 02:32:00,
2013-02-12 21:42:00,43.0,39.0,29.92,ENE,57,0.0,-999.0,86,-99.99,,,-99.99,,2013-02-13 02:42:00,
2013-02-12 21:52:00,43.0,39.0,29.91,ENE,57,0.0,-999.0,87,-99.99,,,-99.99,,2013-02-13 02:52:00,
2013-02-12 22:01:00,43.0,39.0,29.90,ENE,57,0.0,-999.0,87,-99.99,,,-99.99,,2013-02-13 03:01:00,
2013-02-12 22:11:00,43.0,40.0,29.89,ENE,57,0.0,-999.0,88,-99.99,,,-99.99,,2013-02-13 03:11:00,
2013-02-12 22:21:00,43.0,40.0,29.89,ENE,57,0.0,-999.0,88,-99.99,,,-99.99,,2013-02-13 03:21:00,
2013-02-12 22:32:00,42.0,39.0,29.89,ENE,57,0.0,-999.0,89,-99.99,,,-99.99,,2013-02-13 03:32:00,
2013-02-12 22:42:00,42.0,39.0,29.89,ENE,57,0.0,-999.0,89,-99.99,,,-99.99,,2013-02-13 03:42:00,
2013-02-12 22:52:00,42.0,39.0,29.86,ENE,57,0.0,-999.0,89,-99.99,,,-99.99,,2013-02-13 03:52:00,
2013-02-12 23:01:00,42.0,39.0,29.88,ENE,57,0.0,-999.0,89,-99.99,,,-99.99,,2013-02-13 04:01:00,
2013-02-12 23:11:00,42.0,39.0,29.88,ENE,57,0.0,-999.0,89,-99.99,,,-99.99,,2013-02-13 04:11:00,
2013-02-12 23:21:00,42.0,39.0,29.88,NE,56,0.0,-999.0,89,-99.99,,,-99.99,,2013-02-13 04:21:00,
2013-02-12 23:32:00,42.0,39.0,29.87,ENE,57,0.0,-999.0,90,-99.99,,,-99.99,,2013-02-13 04:32:00,
2013-02-12 23:42:00,42.0,39.0,29.87,ENE,57,0.0,-999.0,90,-99.99,,,-99.99,,2013-02-13 04:42:00,
2013-02-12 23:51:00,42.0,39.0,29.87,ENE,57,0.0,-999.0,90,-99.99,,,-99.99,,2013-02-13 04:51:00,